Location: Dittelbrunn
(50.0738°N, 10.2196°E)
Time: 03:32:06
(UTC+00:00)

NOSS 2-2 (C) - Pass Details

Date: 18 September 2020
Orbit: 468 x 1740 km, 63.3° (Epoch: 19 October)

Event Time Altitude Azimuth Distance (km) Brightness Sun altitude
Rises 18:15:43 0° 192° (SSW) 2,505 6.7 -8.8°
Reaches altitude 10° 18:17:58 10° 179° (S) 1,624 5.6 -9.2°
Maximum altitude 18:20:58 27° 120° (ESE) 963 4.0 -9.7°
Drops below altitude 10° 18:24:14 10° 61° (ENE) 1,778 5.5 -10.2°
Sets 18:26:50 0° 49° (NE) 2,803 6.6 -10.6°
